Location: Villingen
(48.0639°N, 8.4609°E)
Time: 23:48:05
(UTC+01:00)

ISS - Pass Details

Date: 11 January 2018
Orbit: 402 x 407 km, 51.6° (Epoch: 20 January)

Event Time Altitude Azimuth Distance (km) Brightness Sun altitude
Exits shadow 05:41:27 32° 78° (ENE) 717 -2.1 -24.7°
Drops below altitude 10° 05:43:28 10° 95° (E) 1,466 0.1 -24.3°
Sets 05:45:34 0° 99° (E) 2,326 1.5 -24.0°
